DELTA 1 R/B

Last updated on Thu Nov 21 2024 00:02:12 GMT+0000 (Coordinated Universal Time)

1 20323U 89089B 24325.18682502 .00000783 00000+0 20493-3 0 9990 2 20323 97.1200 235.7396 0069655 179.2080 180.9241 14.50008696826958
UTC large
Height (km)
Speed (km/s)
/
Latitude / Longitude
Inclination (degrees)
Orbital Period (minutes)
Azimuth
Elevation
Range (km)
Doppler Factor

Next 0 passes for location: London (51.5072 / 0.1276)

Sorry there are no passes over London.